contact:dominique.lefevre@mio.osupytheas.fr, maurice.libes@osupytheas.fr, didier.mallarino@osupytheas.fr
Project:EMSO http://www.emso-fr.org/EMSO-France
Depth: 2436.0 m
Title:EMSO Ligure Ouest : Data MII capteur MICROCAT
DateTime_Computer,Latitude,Longitude,Temperature,Conductivity,Pressure,DateTime_Instrument
DateTime_Computer,Latitude,Longitude,degC,S m-1,dbar,DateTime_Instrument
2021-05-30T00:00:22Z,42.805,6.029,13.2991,4.60005,2470.366,2021-5-30T02:01:34Z
2021-05-30T00:03:25Z,42.805,6.029,13.2986,4.60006,2470.366,2021-5-30T02:04:37Z
2021-05-30T00:06:28Z,42.805,6.029,13.2983,4.60009,2470.366,2021-5-30T02:07:41Z
2021-05-30T00:09:31Z,42.805,6.029,13.2996,4.60013,2470.366,2021-5-30T02:10:44Z
2021-05-30T00:12:35Z,42.805,6.029,13.2990,4.60041,2470.357,2021-5-30T02:13:47Z
2021-05-30T00:15:38Z,42.805,6.029,13.3014,4.60028,2470.366,2021-5-30T02:16:50Z
2021-05-30T00:18:41Z,42.805,6.029,13.3006,4.60043,2470.366,2021-5-30T02:19:53Z
2021-05-30T00:21:44Z,42.805,6.029,13.2992,4.60019,2470.343,2021-5-30T02:22:56Z
2021-05-30T00:24:47Z,42.805,6.029,13.3015,4.60027,2470.343,2021-5-30T02:25:59Z
2021-05-30T00:27:50Z,42.805,6.029,13.3051,4.60031,2470.38,2021-5-30T02:29:02Z
2021-05-30T00:30:53Z,42.805,6.029,13.2994,4.60005,2470.39,2021-5-30T02:32:06Z
2021-05-30T00:33:56Z,42.805,6.029,13.3007,4.60008,2470.357,2021-5-30T02:35:09Z
2021-05-30T00:37:00Z,42.805,6.029,13.2991,4.60014,2470.366,2021-5-30T02:38:12Z
2021-05-30T00:40:03Z,42.805,6.029,13.2986,4.60011,2470.38,2021-5-30T02:41:15Z
2021-05-30T00:43:06Z,42.805,6.029,13.2990,4.60012,2470.366,2021-5-30T02:44:18Z
2021-05-30T00:46:09Z,42.805,6.029,13.2991,4.60013,2470.343,2021-5-30T02:47:21Z
2021-05-30T00:49:12Z,42.805,6.029,13.2987,4.60010,2470.357,2021-5-30T02:50:24Z
2021-05-30T00:52:15Z,42.805,6.029,13.2987,4.60009,2470.38,2021-5-30T02:53:27Z
2021-05-30T00:55:18Z,42.805,6.029,13.2990,4.60014,2470.357,2021-5-30T02:56:31Z
2021-05-30T00:58:21Z,42.805,6.029,13.2989,4.60003,2470.357,2021-5-30T02:59:34Z
2021-05-30T01:01:25Z,42.805,6.029,13.2987,4.60007,2470.366,2021-5-30T03:02:37Z
2021-05-30T01:04:28Z,42.805,6.029,13.2991,4.60014,2470.343,2021-5-30T03:05:40Z
2021-05-30T01:07:31Z,42.805,6.029,13.2986,4.60011,2470.357,2021-5-30T03:08:43Z
2021-05-30T01:10:34Z,42.805,6.029,13.2983,4.60007,2470.366,2021-5-30T03:11:46Z
2021-05-30T01:13:37Z,42.805,6.029,13.2986,4.60006,2470.343,2021-5-30T03:14:49Z
2021-05-30T01:16:40Z,42.805,6.029,13.2986,4.60011,2470.32,2021-5-30T03:17:52Z
2021-05-30T01:19:43Z,42.805,6.029,13.2984,4.60003,2470.343,2021-5-30T03:20:55Z
2021-05-30T01:22:46Z,42.805,6.029,13.2987,4.60011,2470.343,2021-5-30T03:23:59Z
2021-05-30T01:25:50Z,42.805,6.029,13.2988,4.60011,2470.343,2021-5-30T03:27:02Z
2021-05-30T01:28:53Z,42.805,6.029,13.2987,4.60011,2470.343,2021-5-30T03:30:05Z
2021-05-30T01:31:56Z,42.805,6.029,13.2990,4.60006,2470.31,2021-5-30T03:33:08Z
2021-05-30T01:34:59Z,42.805,6.029,13.2984,4.60004,2470.343,2021-5-30T03:36:11Z
2021-05-30T01:38:02Z,42.805,6.029,13.2988,4.60003,2470.32,2021-5-30T03:39:14Z
2021-05-30T01:41:05Z,42.805,6.029,13.2990,4.60003,2470.38,2021-5-30T03:42:17Z
2021-05-30T01:44:08Z,42.805,6.029,13.2991,4.60006,2470.32,2021-5-30T03:45:20Z
2021-05-30T01:47:11Z,42.805,6.029,13.2991,4.60007,2470.334,2021-5-30T03:48:24Z
2021-05-30T01:50:15Z,42.805,6.029,13.2990,4.60004,2470.32,2021-5-30T03:51:27Z
2021-05-30T01:53:18Z,42.805,6.029,13.2989,4.60006,2470.32,2021-5-30T03:54:30Z
2021-05-30T01:56:21Z,42.805,6.029,13.2990,4.60003,2470.343,2021-5-30T03:57:33Z
2021-05-30T01:59:24Z,42.805,6.029,13.2990,4.60004,2470.31,2021-5-30T04:00:36Z
2021-05-30T02:02:27Z,42.805,6.029,13.2992,4.60003,2470.343,2021-5-30T04:03:39Z
2021-05-30T02:05:30Z,42.805,6.029,13.2992,4.60006,2470.32,2021-5-30T04:06:42Z
2021-05-30T02:08:33Z,42.805,6.029,13.2997,4.60052,2470.297,2021-5-30T04:09:45Z
2021-05-30T02:11:36Z,42.805,6.029,13.3008,4.60003,2470.31,2021-5-30T04:12:49Z
2021-05-30T02:14:40Z,42.805,6.029,13.2997,4.60024,2470.31,2021-5-30T04:15:52Z
2021-05-30T02:17:43Z,42.805,6.029,13.2995,4.60007,2470.273,2021-5-30T04:18:55Z
2021-05-30T02:20:46Z,42.805,6.029,13.2996,4.60007,2470.334,2021-5-30T04:21:58Z
2021-05-30T02:23:49Z,42.805,6.029,13.2997,4.60028,2470.273,2021-5-30T04:25:01Z
2021-05-30T02:26:52Z,42.805,6.029,13.2996,4.60011,2470.287,2021-5-30T04:28:04Z
2021-05-30T02:29:55Z,42.805,6.029,13.2993,4.60001,2470.297,2021-5-30T04:31:07Z
2021-05-30T02:32:58Z,42.805,6.029,13.3021,4.59999,2470.32,2021-5-30T04:34:10Z
2021-05-30T02:36:01Z,42.805,6.029,13.2991,4.60006,2470.32,2021-5-30T04:37:14Z
2021-05-30T02:39:05Z,42.805,6.029,13.2998,4.60003,2470.31,2021-5-30T04:40:17Z
2021-05-30T02:42:08Z,42.805,6.029,13.2992,4.60014,2470.31,2021-5-30T04:43:20Z
2021-05-30T02:45:11Z,42.805,6.029,13.2998,4.60009,2470.287,2021-5-30T04:46:23Z
2021-05-30T02:48:14Z,42.805,6.029,13.2987,4.60009,2470.297,2021-5-30T04:49:26Z
2021-05-30T02:51:17Z,42.805,6.029,13.2991,4.60001,2470.297,2021-5-30T04:52:29Z
2021-05-30T02:54:20Z,42.805,6.029,13.2986,4.60000,2470.287,2021-5-30T04:55:32Z
2021-05-30T02:57:23Z,42.805,6.029,13.2988,4.60005,2470.273,2021-5-30T04:58:35Z
2021-05-30T03:00:26Z,42.805,6.029,13.2989,4.60001,2470.297,2021-5-30T05:01:39Z
2021-05-30T03:03:29Z,42.805,6.029,13.2994,4.60002,2470.25,2021-5-30T05:04:42Z
2021-05-30T03:06:33Z,42.805,6.029,13.3006,4.60007,2470.287,2021-5-30T05:07:45Z
2021-05-30T03:09:36Z,42.805,6.029,13.3006,4.60026,2470.264,2021-5-30T05:10:48Z
2021-05-30T03:12:39Z,42.805,6.029,13.3063,4.60024,2470.264,2021-5-30T05:13:51Z
2021-05-30T03:15:42Z,42.805,6.029,13.2993,4.60009,2470.273,2021-5-30T05:16:54Z
2021-05-30T03:18:45Z,42.805,6.029,13.3052,4.60018,2470.25,2021-5-30T05:19:57Z
2021-05-30T03:21:48Z,42.805,6.029,13.2992,4.60006,2470.264,2021-5-30T05:23:00Z
2021-05-30T03:24:51Z,42.805,6.029,13.3004,4.60004,2470.264,2021-5-30T05:26:04Z
2021-05-30T03:27:54Z,42.805,6.029,13.3001,4.60011,2470.24,2021-5-30T05:29:07Z
2021-05-30T03:30:58Z,42.805,6.029,13.2989,4.60011,2470.273,2021-5-30T05:32:10Z
2021-05-30T03:34:01Z,42.805,6.029,13.2986,4.60008,2470.25,2021-5-30T05:35:13Z
2021-05-30T03:37:04Z,42.805,6.029,13.2988,4.60007,2470.273,2021-5-30T05:38:16Z
2021-05-30T03:40:07Z,42.805,6.029,13.2986,4.60003,2470.25,2021-5-30T05:41:19Z
2021-05-30T03:43:10Z,42.805,6.029,13.2992,4.60001,2470.227,2021-5-30T05:44:22Z
2021-05-30T03:46:13Z,42.805,6.029,13.2988,4.60007,2470.227,2021-5-30T05:47:25Z
2021-05-30T03:49:16Z,42.805,6.029,13.2990,4.60003,2470.227,2021-5-30T05:50:29Z
2021-05-30T03:52:19Z,42.805,6.029,13.2990,4.60005,2470.25,2021-5-30T05:53:32Z
2021-05-30T03:55:23Z,42.805,6.029,13.2989,4.60007,2470.227,2021-5-30T05:56:35Z
2021-05-30T03:58:26Z,42.805,6.029,13.2998,4.60004,2470.217,2021-5-30T05:59:38Z
2021-05-30T04:01:29Z,42.805,6.029,13.2991,4.60002,2470.227,2021-5-30T06:02:41Z
2021-05-30T04:04:32Z,42.805,6.029,13.2991,4.60051,2470.227,2021-5-30T06:05:44Z
2021-05-30T04:07:35Z,42.805,6.029,13.2993,4.60008,2470.227,2021-5-30T06:08:47Z
2021-05-30T04:10:38Z,42.805,6.029,13.2991,4.60001,2470.264,2021-5-30T06:11:50Z
2021-05-30T04:13:41Z,42.805,6.029,13.3004,4.60010,2470.227,2021-5-30T06:14:54Z
2021-05-30T04:16:44Z,42.805,6.029,13.2996,4.60002,2470.227,2021-5-30T06:17:57Z
2021-05-30T04:19:48Z,42.805,6.029,13.2997,4.60002,2470.227,2021-5-30T06:21:00Z
2021-05-30T04:22:51Z,42.805,6.029,13.3007,4.60016,2470.213,2021-5-30T06:24:03Z
2021-05-30T04:25:54Z,42.805,6.029,13.2999,4.60019,2470.264,2021-5-30T06:27:06Z
2021-05-30T04:28:57Z,42.805,6.029,13.3034,4.60036,2470.217,2021-5-30T06:30:09Z
2021-05-30T04:32:00Z,42.805,6.029,13.3007,4.60028,2470.203,2021-5-30T06:33:12Z
2021-05-30T04:35:03Z,42.805,6.029,13.3026,4.60044,2470.217,2021-5-30T06:36:15Z
2021-05-30T04:38:06Z,42.805,6.029,13.3006,4.60039,2470.227,2021-5-30T06:39:19Z
2021-05-30T04:41:09Z,42.805,6.029,13.3027,4.60070,2470.203,2021-5-30T06:42:22Z
2021-05-30T04:44:13Z,42.805,6.029,13.3044,4.60079,2470.203,2021-5-30T06:45:25Z
2021-05-30T04:47:16Z,42.805,6.029,13.3040,4.60084,2470.24,2021-5-30T06:48:28Z
2021-05-30T04:50:19Z,42.805,6.029,13.3036,4.60061,2470.217,2021-5-30T06:51:31Z
2021-05-30T04:53:22Z,42.805,6.029,13.3039,4.60019,2470.264,2021-5-30T06:54:34Z
2021-05-30T04:56:25Z,42.805,6.029,13.3034,4.60083,2470.24,2021-5-30T06:57:37Z
2021-05-30T04:59:28Z,42.805,6.029,13.3033,4.60057,2470.24,2021-5-30T07:00:40Z
2021-05-30T05:02:31Z,42.805,6.029,13.3019,4.60054,2470.227,2021-5-30T07:03:44Z
2021-05-30T05:05:34Z,42.805,6.029,13.3024,4.60052,2470.25,2021-5-30T07:06:47Z
2021-05-30T05:08:38Z,42.805,6.029,13.3009,4.60047,2470.217,2021-5-30T07:09:50Z
2021-05-30T05:11:41Z,42.805,6.029,13.3033,4.60078,2470.264,2021-5-30T07:12:53Z
2021-05-30T05:14:44Z,42.805,6.029,13.3011,4.60068,2470.203,2021-5-30T07:15:56Z
2021-05-30T05:17:47Z,42.805,6.029,13.3029,4.60046,2470.203,2021-5-30T07:18:59Z
2021-05-30T05:20:50Z,42.805,6.029,13.3029,4.60089,2470.227,2021-5-30T07:22:02Z
2021-05-30T05:23:53Z,42.805,6.029,13.3028,4.60074,2470.217,2021-5-30T07:25:05Z
2021-05-30T05:26:56Z,42.805,6.029,13.3026,4.60068,2470.24,2021-5-30T07:28:09Z
2021-05-30T05:29:59Z,42.805,6.029,13.3036,4.60055,2470.24,2021-5-30T07:31:12Z
2021-05-30T05:33:03Z,42.805,6.029,13.3047,4.60021,2470.203,2021-5-30T07:34:15Z
2021-05-30T05:36:06Z,42.805,6.029,13.3035,4.60018,2470.217,2021-5-30T07:37:18Z
2021-05-30T05:39:09Z,42.805,6.029,13.3035,4.60014,2470.25,2021-5-30T07:40:21Z
2021-05-30T05:42:12Z,42.805,6.029,13.3028,4.60067,2470.24,2021-5-30T07:43:24Z
2021-05-30T05:45:15Z,42.805,6.029,13.3030,4.60044,2470.227,2021-5-30T07:46:27Z
2021-05-30T05:48:18Z,42.805,6.029,13.3013,4.60041,2470.227,2021-5-30T07:49:30Z
2021-05-30T05:51:21Z,42.805,6.029,13.3031,4.60028,2470.203,2021-5-30T07:52:34Z
2021-05-30T05:54:24Z,42.805,6.029,13.3025,4.60047,2470.203,2021-5-30T07:55:37Z
2021-05-30T05:57:28Z,42.805,6.029,13.3021,4.60082,2470.25,2021-5-30T07:58:40Z
2021-05-30T06:00:31Z,42.805,6.029,13.3016,4.60052,2470.227,2021-5-30T08:01:43Z
2021-05-30T06:03:34Z,42.805,6.029,13.3029,4.60057,2470.264,2021-5-30T08:04:46Z
2021-05-30T06:06:37Z,42.805,6.029,13.3021,4.60065,2470.264,2021-5-30T08:07:49Z
2021-05-30T06:09:40Z,42.805,6.029,13.3009,4.60049,2470.25,2021-5-30T08:10:52Z
2021-05-30T06:12:43Z,42.805,6.029,13.3024,4.60081,2470.217,2021-5-30T08:13:55Z
2021-05-30T06:15:46Z,42.805,6.029,13.3032,4.60089,2470.264,2021-5-30T08:16:58Z
2021-05-30T06:18:49Z,42.805,6.029,13.3041,4.60049,2470.273,2021-5-30T08:20:02Z
2021-05-30T06:21:53Z,42.805,6.029,13.3034,4.60063,2470.227,2021-5-30T08:23:05Z
2021-05-30T06:24:56Z,42.805,6.029,13.3041,4.60046,2470.227,2021-5-30T08:26:08Z
2021-05-30T06:27:59Z,42.805,6.029,13.3037,4.60059,2470.194,2021-5-30T08:29:11Z
2021-05-30T06:31:02Z,42.805,6.029,13.3031,4.60035,2470.264,2021-5-30T08:32:14Z
2021-05-30T06:34:05Z,42.805,6.029,13.3024,4.60027,2470.227,2021-5-30T08:35:17Z
2021-05-30T06:37:08Z,42.805,6.029,13.3026,4.60029,2470.264,2021-5-30T08:38:20Z
2021-05-30T06:40:11Z,42.805,6.029,13.3022,4.60057,2470.264,2021-5-30T08:41:23Z
2021-05-30T06:43:14Z,42.805,6.029,13.3025,4.60062,2470.227,2021-5-30T08:44:27Z
2021-05-30T06:46:18Z,42.805,6.029,13.3026,4.60086,2470.264,2021-5-30T08:47:30Z
2021-05-30T06:49:21Z,42.805,6.029,13.3025,4.60060,2470.24,2021-5-30T08:50:33Z
2021-05-30T06:52:24Z,42.805,6.029,13.3052,4.60054,2470.24,2021-5-30T08:53:36Z
2021-05-30T06:55:27Z,42.805,6.029,13.3015,4.60092,2470.273,2021-5-30T08:56:39Z
2021-05-30T06:58:30Z,42.805,6.029,13.3032,4.60052,2470.287,2021-5-30T08:59:42Z
2021-05-30T07:01:33Z,42.805,6.029,13.3012,4.60068,2470.24,2021-5-30T09:02:45Z
2021-05-30T07:04:36Z,42.805,6.029,13.3021,4.60089,2470.24,2021-5-30T09:05:48Z
2021-05-30T07:07:39Z,42.805,6.029,13.3024,4.60088,2470.273,2021-5-30T09:08:52Z
2021-05-30T07:10:42Z,42.805,6.029,13.3023,4.60095,2470.25,2021-5-30T09:11:55Z
2021-05-30T07:13:46Z,42.805,6.029,13.3020,4.60058,2470.287,2021-5-30T09:14:58Z
2021-05-30T07:16:49Z,42.805,6.029,13.3025,4.60051,2470.287,2021-5-30T09:18:01Z
2021-05-30T07:19:52Z,42.805,6.029,13.3017,4.60087,2470.264,2021-5-30T09:21:04Z
2021-05-30T07:22:55Z,42.805,6.029,13.3019,4.60076,2470.297,2021-5-30T09:24:07Z
2021-05-30T07:25:58Z,42.805,6.029,13.3023,4.60080,2470.25,2021-5-30T09:27:10Z
2021-05-30T07:29:01Z,42.805,6.029,13.3015,4.60094,2470.273,2021-5-30T09:30:13Z
2021-05-30T07:32:04Z,42.805,6.029,13.3012,4.60088,2470.25,2021-5-30T09:33:17Z
2021-05-30T07:35:07Z,42.805,6.029,13.3021,4.60069,2470.297,2021-5-30T09:36:20Z
2021-05-30T07:38:11Z,42.805,6.029,13.3045,4.60072,2470.31,2021-5-30T09:39:23Z
2021-05-30T07:41:14Z,42.805,6.029,13.3015,4.60091,2470.264,2021-5-30T09:42:26Z
2021-05-30T07:44:17Z,42.805,6.029,13.3021,4.60064,2470.297,2021-5-30T09:45:29Z
2021-05-30T07:47:20Z,42.805,6.029,13.3025,4.60068,2470.273,2021-5-30T09:48:32Z
2021-05-30T07:50:23Z,42.805,6.029,13.3020,4.60049,2470.287,2021-5-30T09:51:35Z
2021-05-30T07:53:26Z,42.805,6.029,13.3045,4.60067,2470.297,2021-5-30T09:54:38Z
2021-05-30T07:56:29Z,42.805,6.029,13.3039,4.60070,2470.273,2021-5-30T09:57:42Z
2021-05-30T07:59:32Z,42.805,6.029,13.3029,4.60061,2470.297,2021-5-30T10:00:45Z
2021-05-30T08:02:36Z,42.805,6.029,13.3033,4.60084,2470.297,2021-5-30T10:03:48Z
2021-05-30T08:05:39Z,42.805,6.029,13.3043,4.60046,2470.31,2021-5-30T10:06:51Z
2021-05-30T08:08:42Z,42.805,6.029,13.3035,4.60066,2470.273,2021-5-30T10:09:54Z
2021-05-30T08:11:45Z,42.805,6.029,13.3036,4.60046,2470.31,2021-5-30T10:12:57Z
2021-05-30T08:14:48Z,42.805,6.029,13.3035,4.60053,2470.287,2021-5-30T10:16:00Z
2021-05-30T08:17:51Z,42.805,6.029,13.3029,4.60055,2470.343,2021-5-30T10:19:03Z
2021-05-30T08:20:54Z,42.805,6.029,13.3049,4.60062,2470.31,2021-5-30T10:22:07Z
2021-05-30T08:23:57Z,42.805,6.029,13.3048,4.60079,2470.273,2021-5-30T10:25:10Z
2021-05-30T08:27:01Z,42.805,6.029,13.3020,4.60042,2470.334,2021-5-30T10:28:13Z
2021-05-30T08:30:04Z,42.805,6.029,13.3019,4.60036,2470.287,2021-5-30T10:31:16Z
2021-05-30T08:33:07Z,42.805,6.029,13.3042,4.60058,2470.32,2021-5-30T10:34:19Z
2021-05-30T08:36:10Z,42.805,6.029,13.3028,4.60084,2470.264,2021-5-30T10:37:22Z
2021-05-30T08:39:13Z,42.805,6.029,13.3045,4.60053,2470.31,2021-5-30T10:40:25Z
2021-05-30T08:42:16Z,42.805,6.029,13.3040,4.60038,2470.297,2021-5-30T10:43:28Z
2021-05-30T08:45:19Z,42.805,6.029,13.3031,4.60044,2470.301,2021-5-30T10:46:32Z
2021-05-30T08:48:23Z,42.805,6.029,13.3021,4.60027,2470.357,2021-5-30T10:49:35Z
2021-05-30T08:51:26Z,42.805,6.029,13.3019,4.60099,2470.297,2021-5-30T10:52:38Z
2021-05-30T08:54:29Z,42.805,6.029,13.3059,4.60050,2470.32,2021-5-30T10:55:41Z
2021-05-30T08:57:32Z,42.805,6.029,13.3070,4.60059,2470.32,2021-5-30T10:58:44Z
2021-05-30T09:00:35Z,42.805,6.029,13.3043,4.60062,2470.287,2021-5-30T11:01:47Z
2021-05-30T09:03:38Z,42.805,6.029,13.3061,4.60049,2470.297,2021-5-30T11:04:50Z
2021-05-30T09:06:41Z,42.805,6.029,13.3067,4.60064,2470.31,2021-5-30T11:07:53Z
2021-05-30T09:09:44Z,42.805,6.029,13.3026,4.60020,2470.334,2021-5-30T11:10:57Z
2021-05-30T09:12:48Z,42.805,6.029,13.3031,4.60033,2470.31,2021-5-30T11:14:00Z
2021-05-30T09:15:51Z,42.805,6.029,13.3041,4.60034,2470.334,2021-5-30T11:17:03Z
2021-05-30T09:18:54Z,42.805,6.029,13.3032,4.60033,2470.32,2021-5-30T11:20:06Z
2021-05-30T09:21:57Z,42.805,6.029,13.3018,4.60031,2470.31,2021-5-30T11:23:09Z
2021-05-30T09:25:00Z,42.805,6.029,13.3037,4.60061,2470.32,2021-5-30T11:26:12Z
2021-05-30T09:28:03Z,42.805,6.029,13.3046,4.60074,2470.32,2021-5-30T11:29:15Z
2021-05-30T09:31:06Z,42.805,6.029,13.3023,4.60041,2470.334,2021-5-30T11:32:19Z
2021-05-30T09:34:09Z,42.805,6.029,13.3038,4.60037,2470.273,2021-5-30T11:35:22Z
2021-05-30T09:37:13Z,42.805,6.029,13.3039,4.60040,2470.32,2021-5-30T11:38:25Z
2021-05-30T09:40:16Z,42.805,6.029,13.3021,4.60052,2470.297,2021-5-30T11:41:28Z
2021-05-30T09:43:19Z,42.805,6.029,13.3033,4.60033,2470.32,2021-5-30T11:44:31Z
2021-05-30T09:46:22Z,42.805,6.029,13.3046,4.60044,2470.297,2021-5-30T11:47:34Z
2021-05-30T09:49:25Z,42.805,6.029,13.3058,4.60062,2470.297,2021-5-30T11:50:37Z
2021-05-30T09:52:28Z,42.805,6.029,13.3063,4.60063,2470.273,2021-5-30T11:53:40Z
2021-05-30T09:55:31Z,42.805,6.029,13.3073,4.60058,2470.297,2021-5-30T11:56:44Z
2021-05-30T09:58:34Z,42.805,6.029,13.3073,4.60068,2470.32,2021-5-30T11:59:47Z
2021-05-30T10:01:38Z,42.805,6.029,13.3045,4.60064,2470.31,2021-5-30T12:02:50Z
2021-05-30T10:04:41Z,42.805,6.029,13.3069,4.60009,2470.297,2021-5-30T12:05:53Z
2021-05-30T10:07:44Z,42.805,6.029,13.3075,4.60014,2470.287,2021-5-30T12:08:56Z
2021-05-30T10:10:47Z,42.805,6.029,13.3079,4.60011,2470.273,2021-5-30T12:11:59Z
2021-05-30T10:13:50Z,42.805,6.029,13.3078,4.60022,2470.31,2021-5-30T12:15:02Z
2021-05-30T10:16:53Z,42.805,6.029,13.3075,4.60005,2470.31,2021-5-30T12:18:05Z
2021-05-30T10:19:56Z,42.805,6.029,13.3051,4.60014,2470.273,2021-5-30T12:21:09Z
2021-05-30T10:22:59Z,42.805,6.029,13.3044,4.60003,2470.273,2021-5-30T12:24:12Z
2021-05-30T10:26:03Z,42.805,6.029,13.3048,4.60003,2470.297,2021-5-30T12:27:15Z
2021-05-30T10:29:06Z,42.805,6.029,13.3018,4.60009,2470.287,2021-5-30T12:30:18Z
2021-05-30T10:32:09Z,42.805,6.029,13.3020,4.60014,2470.287,2021-5-30T12:33:21Z
2021-05-30T10:35:12Z,42.805,6.029,13.3007,4.60008,2470.273,2021-5-30T12:36:24Z
2021-05-30T10:38:15Z,42.805,6.029,13.2989,4.60054,2470.287,2021-5-30T12:39:27Z
2021-05-30T10:41:18Z,42.805,6.029,13.2991,4.60104,2470.32,2021-5-30T12:42:30Z
2021-05-30T10:44:21Z,42.805,6.029,13.2990,4.60052,2470.273,2021-5-30T12:45:34Z
2021-05-30T10:47:24Z,42.805,6.029,13.2996,4.60020,2470.25,2021-5-30T12:48:37Z
2021-05-30T10:50:28Z,42.805,6.029,13.2986,4.60037,2470.287,2021-5-30T12:51:40Z
2021-05-30T10:53:31Z,42.805,6.029,13.2991,4.60009,2470.287,2021-5-30T12:54:43Z
2021-05-30T10:56:34Z,42.805,6.029,13.2993,4.60052,2470.31,2021-5-30T12:57:46Z
2021-05-30T10:59:37Z,42.805,6.029,13.2999,4.60011,2470.297,2021-5-30T13:00:49Z
2021-05-30T11:02:40Z,42.805,6.029,13.2989,4.60034,2470.297,2021-5-30T13:03:52Z
2021-05-30T11:05:43Z,42.805,6.029,13.2991,4.60013,2470.273,2021-5-30T13:06:55Z
2021-05-30T11:08:46Z,42.805,6.029,13.3004,4.60007,2470.273,2021-5-30T13:09:59Z
2021-05-30T11:11:49Z,42.805,6.029,13.2991,4.60003,2470.287,2021-5-30T13:13:02Z
2021-05-30T11:14:53Z,42.805,6.029,13.2988,4.60003,2470.287,2021-5-30T13:16:05Z
2021-05-30T11:17:56Z,42.805,6.029,13.2991,4.60005,2470.273,2021-5-30T13:19:08Z
2021-05-30T11:20:59Z,42.805,6.029,13.2992,4.60000,2470.297,2021-5-30T13:22:11Z
2021-05-30T11:24:02Z,42.805,6.029,13.2992,4.60002,2470.287,2021-5-30T13:25:14Z
2021-05-30T11:27:05Z,42.805,6.029,13.2987,4.59999,2470.273,2021-5-30T13:28:17Z
2021-05-30T11:30:08Z,42.805,6.029,13.2991,4.60003,2470.273,2021-5-30T13:31:20Z
2021-05-30T11:33:11Z,42.805,6.029,13.2988,4.60002,2470.264,2021-5-30T13:34:24Z
2021-05-30T11:36:15Z,42.805,6.029,13.2990,4.60001,2470.297,2021-5-30T13:37:27Z
2021-05-30T11:39:18Z,42.805,6.029,13.2988,4.60002,2470.287,2021-5-30T13:40:30Z
2021-05-30T11:42:21Z,42.805,6.029,13.2989,4.60001,2470.25,2021-5-30T13:43:33Z
2021-05-30T11:45:24Z,42.805,6.029,13.2991,4.59999,2470.25,2021-5-30T13:46:36Z
2021-05-30T11:48:27Z,42.805,6.029,13.2991,4.59999,2470.273,2021-5-30T13:49:39Z
2021-05-30T11:51:30Z,42.805,6.029,13.2990,4.60007,2470.25,2021-5-30T13:52:42Z
2021-05-30T11:54:33Z,42.805,6.029,13.2986,4.60002,2470.264,2021-5-30T13:55:45Z
2021-05-30T11:57:36Z,42.805,6.029,13.2983,4.59999,2470.264,2021-5-30T13:58:49Z
2021-05-30T12:00:40Z,42.805,6.029,13.2988,4.59998,2470.264,2021-5-30T14:01:52Z
2021-05-30T12:03:43Z,42.805,6.029,13.2986,4.59997,2470.227,2021-5-30T14:04:55Z
2021-05-30T12:06:46Z,42.805,6.029,13.2988,4.59997,2470.287,2021-5-30T14:07:58Z
2021-05-30T12:09:49Z,42.805,6.029,13.2985,4.59997,2470.264,2021-5-30T14:11:01Z
2021-05-30T12:12:52Z,42.805,6.029,13.2988,4.59999,2470.25,2021-5-30T14:14:04Z
2021-05-30T12:15:55Z,42.805,6.029,13.2989,4.59999,2470.287,2021-5-30T14:17:07Z
2021-05-30T12:18:58Z,42.805,6.029,13.2984,4.59998,2470.273,2021-5-30T14:20:11Z
2021-05-30T12:22:01Z,42.805,6.029,13.2988,4.60003,2470.24,2021-5-30T14:23:14Z
2021-05-30T12:25:05Z,42.805,6.029,13.2987,4.60003,2470.25,2021-5-30T14:26:17Z
2021-05-30T12:28:08Z,42.805,6.029,13.2986,4.60000,2470.25,2021-5-30T14:29:20Z
2021-05-30T12:31:11Z,42.805,6.029,13.2986,4.59998,2470.227,2021-5-30T14:32:23Z
2021-05-30T12:34:14Z,42.805,6.029,13.2988,4.59999,2470.227,2021-5-30T14:35:26Z
2021-05-30T12:37:17Z,42.805,6.029,13.2986,4.59996,2470.25,2021-5-30T14:38:29Z
2021-05-30T12:40:20Z,42.805,6.029,13.2986,4.59996,2470.264,2021-5-30T14:41:32Z
2021-05-30T12:43:23Z,42.805,6.029,13.2986,4.60001,2470.217,2021-5-30T14:44:36Z
2021-05-30T12:46:26Z,42.805,6.029,13.2985,4.59999,2470.264,2021-5-30T14:47:39Z
2021-05-30T12:49:30Z,42.805,6.029,13.2987,4.59996,2470.227,2021-5-30T14:50:42Z
2021-05-30T12:52:33Z,42.805,6.029,13.2985,4.59997,2470.25,2021-5-30T14:53:45Z
2021-05-30T12:55:36Z,42.805,6.029,13.2983,4.59997,2470.25,2021-5-30T14:56:48Z
2021-05-30T12:58:39Z,42.805,6.029,13.2986,4.60000,2470.25,2021-5-30T14:59:51Z
2021-05-30T13:01:42Z,42.805,6.029,13.2987,4.60003,2470.25,2021-5-30T15:02:54Z
2021-05-30T13:04:45Z,42.805,6.029,13.2986,4.60002,2470.24,2021-5-30T15:05:57Z
2021-05-30T13:07:48Z,42.805,6.029,13.2985,4.60001,2470.227,2021-5-30T15:09:01Z
2021-05-30T13:10:51Z,42.805,6.029,13.2986,4.59996,2470.24,2021-5-30T15:12:04Z
2021-05-30T13:13:55Z,42.805,6.029,13.2990,4.59998,2470.227,2021-5-30T15:15:07Z
2021-05-30T13:16:58Z,42.805,6.029,13.2988,4.60000,2470.18,2021-5-30T15:18:10Z
2021-05-30T13:20:01Z,42.805,6.029,13.2986,4.60001,2470.227,2021-5-30T15:21:13Z
2021-05-30T13:23:04Z,42.805,6.029,13.2991,4.60002,2470.227,2021-5-30T15:24:16Z
2021-05-30T13:26:07Z,42.805,6.029,13.2990,4.59999,2470.24,2021-5-30T15:27:19Z
2021-05-30T13:29:10Z,42.805,6.029,13.2987,4.60001,2470.25,2021-5-30T15:30:22Z
2021-05-30T13:32:13Z,42.805,6.029,13.2991,4.60003,2470.227,2021-5-30T15:33:26Z
2021-05-30T13:35:16Z,42.805,6.029,13.2988,4.60006,2470.24,2021-5-30T15:36:29Z
2021-05-30T13:38:20Z,42.805,6.029,13.2990,4.60002,2470.203,2021-5-30T15:39:32Z
2021-05-30T13:41:23Z,42.805,6.029,13.2986,4.60006,2470.203,2021-5-30T15:42:35Z
2021-05-30T13:44:26Z,42.805,6.029,13.2986,4.60004,2470.217,2021-5-30T15:45:38Z
2021-05-30T13:47:29Z,42.805,6.029,13.2988,4.60000,2470.18,2021-5-30T15:48:41Z
2021-05-30T13:50:32Z,42.805,6.029,13.2985,4.60007,2470.217,2021-5-30T15:51:44Z
2021-05-30T13:53:35Z,42.805,6.029,13.2988,4.60001,2470.24,2021-5-30T15:54:48Z
2021-05-30T13:56:38Z,42.805,6.029,13.2984,4.60003,2470.18,2021-5-30T15:57:51Z
2021-05-30T13:59:42Z,42.805,6.029,13.2982,4.60006,2470.18,2021-5-30T16:00:54Z
2021-05-30T14:02:45Z,42.805,6.029,13.2983,4.59999,2470.203,2021-5-30T16:03:57Z
2021-05-30T14:05:48Z,42.805,6.029,13.2988,4.60005,2470.156,2021-5-30T16:07:00Z
2021-05-30T14:08:51Z,42.805,6.029,13.2993,4.60006,2470.25,2021-5-30T16:10:03Z
2021-05-30T14:11:54Z,42.805,6.029,13.2986,4.60006,2470.18,2021-5-30T16:13:06Z
2021-05-30T14:14:57Z,42.805,6.029,13.2990,4.60004,2470.18,2021-5-30T16:16:09Z
2021-05-30T14:18:00Z,42.805,6.029,13.2987,4.60009,2470.18,2021-5-30T16:19:13Z
2021-05-30T14:21:03Z,42.805,6.029,13.2986,4.60005,2470.217,2021-5-30T16:22:16Z
2021-05-30T14:24:07Z,42.805,6.029,13.2990,4.60008,2470.203,2021-5-30T16:25:19Z
2021-05-30T14:27:10Z,42.805,6.029,13.2984,4.60009,2470.217,2021-5-30T16:28:22Z
2021-05-30T14:30:13Z,42.805,6.029,13.2994,4.60006,2470.203,2021-5-30T16:31:25Z
2021-05-30T14:33:16Z,42.805,6.029,13.2987,4.60001,2470.203,2021-5-30T16:34:28Z
2021-05-30T14:36:19Z,42.805,6.029,13.2988,4.60004,2470.18,2021-5-30T16:37:31Z
2021-05-30T14:39:22Z,42.805,6.029,13.2991,4.60003,2470.194,2021-5-30T16:40:34Z
2021-05-30T14:42:25Z,42.805,6.029,13.2990,4.60005,2470.217,2021-5-30T16:43:38Z
2021-05-30T14:45:28Z,42.805,6.029,13.2990,4.60006,2470.217,2021-5-30T16:46:41Z
2021-05-30T14:48:32Z,42.805,6.029,13.2989,4.60009,2470.18,2021-5-30T16:49:44Z
2021-05-30T14:51:35Z,42.805,6.029,13.2987,4.60011,2470.18,2021-5-30T16:52:47Z
2021-05-30T14:54:38Z,42.805,6.029,13.2983,4.60011,2470.156,2021-5-30T16:55:50Z
2021-05-30T14:57:41Z,42.805,6.029,13.2989,4.60009,2470.18,2021-5-30T16:58:53Z
2021-05-30T15:00:44Z,42.805,6.029,13.2990,4.60003,2470.194,2021-5-30T17:01:56Z
2021-05-30T15:03:47Z,42.805,6.029,13.2984,4.60006,2470.194,2021-5-30T17:04:59Z
2021-05-30T15:06:50Z,42.805,6.029,13.2988,4.60001,2470.194,2021-5-30T17:08:03Z
2021-05-30T15:09:53Z,42.805,6.029,13.2993,4.60009,2470.18,2021-5-30T17:11:06Z
2021-05-30T15:12:57Z,42.805,6.029,13.2986,4.60009,2470.18,2021-5-30T17:14:09Z